Regional Weather Roundup
Issued by NWS

Home | Current Version | Previous Version | Graphics & Text | Print | Product List | Glossary On
Versions: 1 2 3 4 5 6 7 8 9 10 11 12 13 14 15 16 17 18 19 20 21 22 23 24 25 26 27 28 29 30 31 32 33 34 35 36 37 38 39 40 41 42 43 44 45 46 47 48 49 50
438
ASUS43 KDTX 111401
RWRMI
MICHIGAN HOURLY REGIONAL WEATHER ROUNDUP
NATIONAL WEATHER SERVICE DETROIT/PONTIAC MI
900 AM EST THU FEB 11 2016

NOTE: "FAIR" INDICATES FEW OR NO CLOUDS BELOW 12,000 FEET WITH NO
SIGNIFICANT WEATHER AND/OR OBSTRUCTION TO VISIBILITY.

MIZ047>049-052>055-059>063-066>070-074>076-081>083-111500-
SOUTHEAST LOWER MICHIGAN

CITY           SKY/WX    TMP DP  RH WIND       PRES   REMARKS
ADRIAN         MOSUNNY   14   6  70 W8        30.19R WCI   3
ALMA           SUNNY     14   9  80 NW7       30.16R WCI   3
ANN ARBOR      SUNNY     12   5  73 W8        30.16R WCI   0
BAD AXE        CLOUDY     9   3  74 NW15      30.12S WCI  -7
CARO           CLOUDY    10   3  72 NW7       30.14R WCI   0
DETROIT CITY   MOSUNNY   13   4  67 NW10      30.16R WCI   0
DETROIT        PTSUNNY   15   5  64 W14       30.18R WCI   0
FLINT          CLOUDY    12   4  70 NW8       30.15R WCI   0
GROSSE ILE     PTSUNNY   16   7  67 W6        30.16R WCI   7
HILLSDALE      PTSUNNY   13   5  72 NW9       30.15R WCI   0
HOWELL         MOSUNNY   10   5  80 W6        30.13R WCI   1

CITY           SKY/WX    TMP DP  RH WIND       PRES   REMARKS
JACKSON        MOSUNNY   13   3  64 NW10      30.16R WCI   0
LAMBERTVILLE   MOSUNNY   16   8  71 W9        30.19R WCI   4
LANSING        MOSUNNY   15   5  64 NW12      30.16R WCI   2
LAPEER         LGT SNOW  10   6  85 NW6       30.13R WCI   0
MASON          MOSUNNY   13   4  65 W10       30.15R WCI   0
MONROE         PTSUNNY   14   7  73 W10       30.17R WCI   1
MT. CLEMENS    MOSUNNY   11   5  74 NW6       30.12R WCI   2
PONTIAC        FLURRIES  10   5  80 W9        30.11R WCI  -3
PORT HOPE        N/A     12   3  67 NW15G28   30.10R WCI  -4
PORT HURON     PTSUNNY   10   3  72 NW7       30.14R WCI   0
TRI CITIES     CLOUDY    13   4  67 NW6       30.17R WCI   4
MIDLAND        CLOUDY    12   5  73 W5        30.17R WCI   4
TROY           CLOUDY    13   7  76 W9        30.16R WCI   1
SAGINAW HB     CLOUDY    12   9  85 NW7       30.16R WCI   2
$$
MIZ043>046-050>051-056>058-064>065-071>073-077>080-111500-
SOUTHWEST LOWER MICHIGAN

CITY           SKY/WX    TMP DP  RH WIND       PRES   REMARKS
BATTLE CREEK   MOSUNNY   13   7  77 W6        30.18R WCI   4
BENTON HARBOR  SNOW      18  11  74 MISG      30.22R VSB 1/2
BIG RAPIDS     FLURRIES  14  10  85 W6        30.14R WCI   5
COLDWATER      CLOUDY    15   8  73 W6        30.18R WCI   6
FREMONT        CLOUDY    15   6  66 NW6       30.18S WCI   7
HOLLAND        CLOUDY    16   9  74 CALM      30.21R
GRAND RAPIDS   PTSUNNY   17   7  64 NW13      30.19R WCI   4
IONIA          CLOUDY    15   5  66 W10       30.17R WCI   2
KALAMAZOO      CLOUDY    14   7  73 W5        30.20R WCI   6
LUDINGTON      FLURRIES  16   6  65 N9        30.20S WCI   5
MARSHALL       CLOUDY    14   8  78 W6        30.17R WCI   5
MOUNT PLEASANT CLOUDY    13   7  76 N5        30.16R WCI   5
MUSKEGON       FLURRIES  17   8  67 N6        30.22R WCI   9
SOUTH HAVEN    CLOUDY    15  11  83 S3        30.22R
$$
MIZ016>042-111500-
NORTHERN LOWER MICHIGAN

CITY           SKY/WX    TMP DP  RH WIND       PRES   REMARKS
ALPENA         LGT SNOW   5  -1  76 NW15      30.14R WCI -13
BEAVER ISLAND  CLOUDY    10   3  71 N7        30.17R WCI   0
BELLAIRE       CLOUDY    13   4  69 N6        30.17S WCI   3
CADILLAC       LGT SNOW  11   6  77 NW3       30.09R
CHARLEVOIX     CLOUDY    13   5  71 N13       30.18R HAZE    WCI  -2
FRANKFORT      LGT SNOW  16  10  74 NW6G16    30.18R WCI   8
GAYLORD        CLOUDY     5  -1  76 VRB3      30.09R
GRAYLING       CLOUDY    -1  -6  82 CALM      30.11S FOG
HARBOR SPRINGS CLOUDY     6  -1  74 CALM      30.16S
HOUGHTON LAKE  PTSUNNY    7   1  76 NW6       30.11R WCI  -3
MANISTEE       CLOUDY    18   3  53 NW10G21   30.18R WCI   6
OSCODA         SUNNY      3  -3  77 NW10      30.14R WCI -12
PELLSTON       PTSUNNY    4  -2  76 N3        30.17R
ROGERS CITY    LGT SNOW   5  -1  77 N13G26    30.15R WCI -12
TRAVERSE CITY  FLURRIES  16   5  62 NW13      30.15R WCI   2
$$
MIZ007>008-015-111500-
EASTERN UPPER MICHIGAN

CITY           SKY/WX    TMP DP  RH WIND       PRES   REMARKS
KINROSS        CLOUDY    -6  -9  84 NE6       30.15S WCI -18
MACKINAC ISLAN CLOUDY     2  -3  79 N5        30.15S WCI  -7
NEWBERRY       CLOUDY     1  -2  88 E3        30.13F
S. S. MARIE    CLOUDY    -7 -16  65 N5        30.16R WCI -18
$$
MIZ004>006-011>014-085-111500-
CENTRAL UPPER MICHIGAN

CITY           SKY/WX    TMP DP  RH WIND       PRES   REMARKS
MANISTIQUE     LGT SNOW   8   4  85 CALM      30.17S
ESCANABA       CLEAR      9   0  66 NW13      30.20S WCI  -7
MENOMINEE      CLEAR      5   0  78 NW8       30.23R WCI  -8
SAWYER-GWINN   MOCLDY     7   0  72 NW7       30.14R WCI  -5
$$
MIZ001>003-009>011-084-111500-
WESTERN UPPER MICHIGAN

CITY           SKY/WX    TMP DP  RH WIND       PRES   REMARKS
IRON MOUNTAIN  CLEAR      4  -4  69 NW7       30.16S WCI  -8
HOUGHTON       LGT SNOW   8   2  76 NW14      30.14F WCI  -8
COPPER HARBOR    N/A     11   5  77 N16       30.17S WCI  -6
IRONWOOD       CLOUDY     3   1  92 W12       30.18S WCI -13
$$

ABBREVIATIONS USED IN REMARKS
   TC - TEMPERATURE IN CELSIUS
  WCI - WIND CHILL INDEX
   HX - HEAT INDEX
  VSB - VISIBILITY





USA.gov is the U.S. government's official web portal to all federal, state and local government web resources and services.